Location: Dompnac
(44.5644°N, 4.1026°E)
Time: 15:28:46
(UTC+00:00)

Cosmos 1891 Rocket - Pass Details

Date: 18 January 2021
Orbit: 934 x 1018 km, 82.9° (Epoch: 05 March)

Event Time Altitude Azimuth Distance (km) Brightness Sun altitude
Rises 05:26:35 0° 192° (SSW) 3,679 7.5 -19.0°
Reaches altitude 10° 05:29:07 10° 195° (SSW) 2,723 6.8 -18.5°
Maximum altitude 05:35:21 72° 279° (W) 1,013 4.4 -17.5°
Drops below altitude 10° 05:41:29 10° 4° (N) 2,685 6.7 -16.4°
Sets 05:43:58 0° 7° (N) 3,625 7.4 -16.0°
